NU4F Weather Reports


time (UTC)temp
C
wind
direction
speed
KPH
gust
KPH
rain 1hr
cm
rain 24hr
cm
rain mn
cm
humidity
%
barometer
mb
20260508064515 26 305 1.6 3.2 0.00 0.00 0.00 78 1013.7
20260508063516 26 225 0.0 3.2 0.00 0.00 0.00 77 1013.6
20260508062516 26 219 0.0 4.8 0.00 0.00 0.00 77 1013.7
20260508061516 26 232 1.6 4.8 0.00 0.00 0.00 76 1013.6
20260508060516 26 215 1.6 9.7 0.00 0.00 0.00 76 1013.8
20260508055516 26 222 0.0 3.2 0.00 0.00 0.00 76 1013.9
20260508054517 26 210 3.2 4.8 0.00 0.00 0.00 75 1014.1
20260508053517 26 215 1.6 6.4 0.00 0.00 0.00 75 1014.2
20260508052517 26 235 0.0 3.2 0.00 0.00 0.00 74 1014.2
20260508051517 26 205 0.0 4.8 0.00 0.00 0.00 74 1014.3
20260508050518 26 202 1.6 4.8 0.00 0.00 0.00 74 1014.3
20260508045558 26 220 1.6 4.8 0.00 0.00 0.00 74 1014.3
20260508044517 26 222 0.0 4.8 0.00 0.00 0.00 74 1014.3
20260508043538 26 164 1.6 6.4 0.00 0.00 0.00 73 1014.3
20260508042518 26 172 0.0 4.8 0.00 0.00 0.00 72 1014.3
20260508041518 27 179 0.0 4.8 0.00 0.00 0.00 72 1014.4
20260508040518 27 153 0.0 4.8 0.00 0.00 0.00 72 1014.4
20260508035516 27 117 1.6 6.4 0.00 0.00 0.00 72 1014.5
20260508034515 27 121 1.6 8.0 0.00 0.00 0.00 72 1014.5
20260508033537 27 131 1.6 6.4 0.00 0.00 0.00 72 1014.5
20260508032516 27 135 1.6 8.0 0.00 0.00 0.00 71 1014.5
20260508031516 27 106 1.6 8.0 0.00 0.00 0.00 70 1014.6
20260508030516 27 108 0.0 4.8 0.00 0.00 0.00 69 1014.6
20260508025536 27 107 1.6 4.8 0.00 0.00 0.00 69 1014.6
20260508024517 27 102 1.6 4.8 0.00 0.00 0.00 69 1014.5
20260508023517 27 109 1.6 4.8 0.00 0.00 0.00 68 1014.5
20260508022517 27 112 1.6 4.8 0.00 0.00 0.00 67 1014.4
20260508021517 27 101 3.2 4.8 0.00 0.00 0.00 66 1014.4
20260508020518 27 134 0.0 4.8 0.00 0.00 0.00 66 1014.4
20260508015518 27 114 1.6 4.8 0.00 0.00 0.00 66 1014.3
20260508014518 27 165 1.6 8.0 0.00 0.00 0.00 66 1014.2
20260508013518 27 145 1.6 4.8 0.00 0.00 0.00 66 1014.2
20260508012518 27 177 1.6 4.8 0.00 0.00 0.00 65 1014.2
20260508011515 27 108 1.6 4.8 0.00 0.00 0.00 65 1014.1
20260508010518 27 117 1.6 4.8 0.00 0.00 0.00 64 1014.1
20260508005536 27 120 1.6 8.0 0.00 0.00 0.00 64 1014.0
20260508004516 27 114 3.2 8.0 0.00 0.00 0.00 64 1014.0
20260508003516 28 110 3.2 8.0 0.00 0.00 0.00 64 1013.8
20260508002537 28 136 1.6 6.4 0.00 0.00 0.00 64 1013.9
20260508001536 28 120 1.6 8.0 0.00 0.00 0.00 63 1013.8
20260508000517 28 119 3.2 8.0 0.00 0.00 0.00 62 1013.8
20260507235516 28 97 4.8 9.7 0.00 0.00 0.00 62 1013.7
20260507234517 28 118 3.2 9.7 0.00 0.00 0.00 61 1013.6
20260507233517 28 114 3.2 11.3 0.00 0.00 0.00 61 1013.7
20260507232517 29 106 3.2 8.0 0.00 0.00 0.00 59 1013.6
20260507231517 29 114 3.2 12.9 0.00 0.00 0.00 57 1013.6
20260507230518 30 99 3.2 9.7 0.00 0.00 0.00 56 1013.5
20260507225518 30 117 3.2 8.0 0.00 0.00 0.00 56 1013.5
20260507224538 30 106 4.8 12.9 0.00 0.00 0.00 52 1013.5
20260507223518 30 106 6.4 16.1 0.00 0.00 0.00 52 1013.4
20260507222515 30 109 6.4 14.5 0.00 0.00 0.00 51 1013.3
20260507221516 30 117 4.8 12.9 0.00 0.00 0.00 54 1013.5
20260507220516 30 108 4.8 14.5 0.00 0.00 0.00 52 1013.4
20260507215536 31 115 4.8 9.7 0.00 0.00 0.00 51 1013.4
20260507214516 31 112 4.8 11.3 0.00 0.00 0.00 53 1013.4
20260507213516 31 101 3.2 9.7 0.00 0.00 0.00 52 1013.5
20260507212516 30 104 4.8 8.0 0.00 0.00 0.00 54 1013.4
20260507211517 31 97 8.0 14.5 0.00 0.00 0.00 53 1013.3
20260507210517 31 98 6.4 14.5 0.00 0.00 0.00 52 1013.4
20260507205537 31 113 6.4 16.1 0.00 0.00 0.00 52 1013.5
20260507204517 30 111 8.0 16.1 0.00 0.00 0.00 52 1013.4
20260507203517 30 100 8.0 16.1 0.00 0.00 0.00 53 1013.4
20260507202517 31 115 9.7 19.3 0.00 0.00 0.00 54 1013.5
20260507201518 31 101 8.0 12.9 0.00 0.00 0.00 54 1013.6
20260507200518 31 104 4.8 12.9 0.00 0.00 0.00 54 1013.8
20260507195518 31 89 8.0 14.5 0.00 0.00 0.00 56 1013.9
20260507194518 31 103 4.8 14.5 0.00 0.00 0.00 55 1014.1
20260507193539 31 90 6.4 11.3 0.00 0.00 0.00 56 1014.1
20260507192515 31 114 6.4 14.5 0.00 0.00 0.00 55 1014.2
20260507191516 31 110 8.0 14.5 0.00 0.00 0.00 54 1014.3
20260507190516 32 107 4.8 14.5 0.00 0.00 0.00 53 1014.5
20260507185516 31 113 6.4 16.1 0.00 0.00 0.00 55 1014.5
20260507184517 31 104 6.4 11.3 0.00 0.00 0.00 55 1014.6
20260507183536 31 103 6.4 12.9 0.00 0.00 0.00 54 1014.9
20260507182517 31 94 8.0 12.9 0.00 0.00 0.00 55 1014.9
20260507181517 31 100 6.4 12.9 0.00 0.00 0.00 54 1015.1
20260507180517 32 106 6.4 14.5 0.00 0.00 0.00 54 1015.3
20260507175517 31 147 3.2 8.0 0.00 0.00 0.00 54 1015.5
20260507174517 31 109 3.2 11.3 0.00 0.00 0.00 56 1015.6
20260507173517 31 96 6.4 12.9 0.00 0.00 0.00 56 1015.6
20260507172518 32 114 4.8 11.3 0.00 0.00 0.00 55 1015.7
20260507171538 31 156 3.2 8.0 0.00 0.00 0.00 55 1015.9
20260507170517 31 97 6.4 12.9 0.00 0.00 0.00 58 1015.8
20260507165518 31 99 6.4 12.9 0.00 0.00 0.00 59 1015.9
20260507164518 31 92 6.4 12.9 0.00 0.00 0.00 59 1015.9
20260507163518 31 95 6.4 12.9 0.00 0.00 0.00 59 1016.0
20260507162515 31 95 4.8 12.9 0.00 0.00 0.00 58 1016.2
20260507161536 31 103 6.4 14.5 0.00 0.00 0.00 58 1016.2
20260507160516 31 102 3.2 9.7 0.00 0.00 0.00 58 1016.5
20260507155516 30 84 6.4 12.9 0.00 0.00 0.00 60 1016.5
20260507154516 30 96 4.8 11.3 0.00 0.00 0.00 59 1016.6
20260507153536 30 79 3.2 9.7 0.00 0.00 0.00 60 1016.7
20260507152516 31 101 6.4 14.5 0.00 0.00 0.00 60 1016.7
20260507151516 30 119 3.2 12.9 0.00 0.00 0.00 60 1017.0
20260507150517 30 302 1.6 4.8 0.00 0.00 0.00 54 1017.1
20260507145517 30 230 3.2 6.4 0.00 0.00 0.00 55 1016.7
20260507144517 29 281 4.8 11.3 0.00 0.00 0.00 58 1016.9
20260507143517 30 244 3.2 9.7 0.00 0.00 0.00 58 1016.8
20260507142518 30 83 1.6 4.8 0.00 0.00 0.00 59 1017.0
20260507141517 29 228 3.2 8.0 0.00 0.00 0.00 59 1017.0
20260507140518 28 265 3.2 6.4 0.00 0.00 0.00 62 1017.1
20260507135559 28 223 3.2 8.0 0.00 0.00 0.00 63 1017.2
20260507134518 28 287 1.6 4.8 0.00 0.00 0.00 66 1017.1
20260507133518 28 244 3.2 6.4 0.00 0.00 0.00 66 1017.2
20260507132516 28 246 3.2 6.4 0.00 0.00 0.00 66 1017.1
20260507131516 28 258 3.2 9.7 0.00 0.00 0.00 67 1017.2
20260507130516 27 265 3.2 8.0 0.00 0.00 0.00 68 1017.3
20260507125536 27 218 1.6 6.4 0.00 0.00 0.00 68 1017.2
20260507124516 27 237 1.6 4.8 0.00 0.00 0.00 69 1017.3
20260507123516 27 307 1.6 4.8 0.00 0.00 0.00 70 1017.2
20260507122517 27 302 0.0 3.2 0.00 0.00 0.00 70 1017.1
20260507121537 26 285 0.0 4.8 0.00 0.00 0.00 72 1017.1
20260507120517 26 289 0.0 3.2 0.00 0.00 0.00 74 1016.8
20260507115517 25 300 0.0 3.2 0.00 0.00 0.00 76 1016.7
20260507114537 25 310 0.0 1.6 0.00 0.00 0.00 78 1016.5
20260507113537 23 0.0 0.0 0.00 0.00 0.00 82 1016.3
20260507112530 22 0.0 0.0 0.00 0.00 0.00 84 1016.2
20260507111529 22 0.0 0.0 0.00 0.00 0.00 85 1015.9
20260507110529 22 282 0.0 1.6 0.00 0.00 0.00 84 1015.9
20260507105530 21 338 0.0 0.0 0.00 0.00 0.00 86 1015.5
20260507104530 21 4 0.0 1.6 0.00 0.00 0.00 85 1015.3
20260507103530 21 0.0 0.0 0.00 0.00 0.00 86 1015.1
20260507102530 21 0.0 0.0 0.00 0.00 0.00 85 1015.0
20260507101516 21 0.0 0.0 0.00 0.00 0.00 85 1014.9
20260507100516 21 0.0 0.0 0.00 0.00 0.00 85 1014.7
20260507095536 21 0.0 0.0 0.00 0.00 0.00 85 1014.8
20260507094536 21 356 0.0 0.0 0.00 0.00 0.00 84 1014.8
20260507093516 21 0.0 0.0 0.00 0.00 0.00 84 1014.7
20260507092516 21 0.0 0.0 0.00 0.00 0.00 84 1014.6
20260507091537 21 0.0 0.0 0.00 0.00 0.00 83 1014.6
20260507090516 21 0.0 0.0 0.00 0.00 0.00 83 1014.6
20260507085517 22 357 0.0 0.0 0.00 0.00 0.00 82 1014.5
20260507084517 22 312 0.0 1.6 0.00 0.00 0.00 82 1014.5
20260507083517 22 0.0 0.0 0.00 0.00 0.00 81 1014.4
20260507082517 22 0.0 0.0 0.00 0.00 0.00 81 1014.5
20260507081518 22 0.0 0.0 0.00 0.00 0.00 80 1014.6
20260507080518 22 0.0 0.0 0.00 0.00 0.00 80 1014.6
20260507075518 22 0.0 0.0 0.00 0.00 0.00 79 1014.6
20260507074518 22 0.0 0.0 0.00 0.00 0.00 79 1014.7
20260507073538 22 0.0 0.0 0.00 0.00 0.00 79 1014.8
20260507072536 22 0.0 0.0 0.00 0.00 0.00 79 1014.8
20260507071516 22 34 0.0 1.6 0.00 0.00 0.00 79 1015.0
20260507070537 22 282 0.0 1.6 0.00 0.00 0.00 79 1015.1
20260507065517 22 310 0.0 1.6 0.00 0.00 0.00 78 1015.0